When you browse on this site, cookies collect data to enhance your experience and personalize the content and advertising you see.
Visit our Privacy Policy to learn more. By continuing to use the site, you agree to this use of cookies and data.
  • En España
  • Lista de países
  • Para 7 días
  • Temperatura del agua
  • Mapa Satelital
  • El tiempo en el mapa
  • Informadores
  • user-avatar
    Iniciar sesión

    Tiempo cada hora Krupets'

    Hoy, 22 Marzo, Viernes

    Tiempo Temperatura Precipitaciones Viento Presión Humedad
    00:00 +4°C° 0 mm 4 mps 751 mmHg 86%
    01:00 +4°C° 0 mm 4 mps 751 mmHg 87%
    02:00 +3°C° 0 mm 3 mps 751 mmHg 91%
    03:00 +4°C° 0 mm 4 mps 751 mmHg 90%
    04:00 +4°C° 0 mm 4 mps 750 mmHg 89%
    05:00 +3°C° 0 mm 5 mps 750 mmHg 87%
    06:00 +5°C° 0 mm 5 mps 750 mmHg 88%
    07:00 +4°C° 0 mm 6 mps 750 mmHg 88%
    08:00 +5°C° 0 mm 6 mps 750 mmHg 88%
    09:00 +7°C° 0.1 mm 6 mps 750 mmHg 87%
    10:00 +7°C° 0.1 mm 6 mps 750 mmHg 85%
    11:00 +8°C° 0.1 mm 7 mps 750 mmHg 83%
    12:00 +9°C° 0.1 mm 7 mps 750 mmHg 79%
    13:00 +9°C° 0.1 mm 7 mps 750 mmHg 75%
    14:00 +10°C° 0.1 mm 7 mps 750 mmHg 71%
    15:00 +9°C° 0 mm 7 mps 750 mmHg 68%
    16:00 +9°C° 0 mm 6 mps 750 mmHg 65%
    17:00 +9°C° 0 mm 6 mps 750 mmHg 62%
    18:00 +8°C° 0 mm 6 mps 750 mmHg 60%
    19:00 +7°C° 0 mm 5 mps 750 mmHg 59%
    20:00 +6°C° 0 mm 4 mps 751 mmHg 57%
    21:00 +5°C° 0 mm 4 mps 751 mmHg 56%
    22:00 +4°C° 0 mm 4 mps 751 mmHg 55%
    23:00 +3°C° 0 mm 4 mps 751 mmHg 53%

    Mañana, 23 Marzo, Sábado

    Tiempo Temperatura Precipitaciones Viento Presión Humedad
    00:00 +1°C° 0 mm 4 mps 751 mmHg 55%
    01:00 0°C° 0 mm 4 mps 751 mmHg 57%
    02:00 +1°C° 0 mm 3 mps 751 mmHg 58%
    03:00 0°C° 0 mm 3 mps 751 mmHg 60%
    04:00 0°C° 0 mm 3 mps 751 mmHg 62%
    05:00 -1°C° 0 mm 3 mps 751 mmHg 65%
    06:00 -1°C° 0 mm 4 mps 751 mmHg 62%
    07:00 -1°C° 0 mm 4 mps 751 mmHg 59%
    08:00 0°C° 0 mm 4 mps 752 mmHg 56%
    09:00 +1°C° 0 mm 4 mps 751 mmHg 50%
    10:00 +4°C° 0 mm 4 mps 751 mmHg 44%
    11:00 +5°C° 0 mm 4 mps 751 mmHg 39%
    12:00 +6°C° 0 mm 4 mps 751 mmHg 36%
    13:00 +7°C° 0 mm 4 mps 751 mmHg 34%
    14:00 +8°C° 0 mm 4 mps 751 mmHg 31%
    15:00 +8°C° 0 mm 4 mps 750 mmHg 31%
    16:00 +8°C° 0 mm 4 mps 750 mmHg 31%
    17:00 +9°C° 0 mm 3 mps 749 mmHg 31%
    18:00 +8°C° 0 mm 3 mps 749 mmHg 34%
    19:00 +6°C° 0 mm 2 mps 749 mmHg 38%
    20:00 +6°C° 0 mm 1 mps 749 mmHg 41%
    21:00 +6°C° 0 mm 1 mps 749 mmHg 42%
    22:00 +5°C° 0 mm 1 mps 749 mmHg 43%
    23:00 +5°C° 0 mm 1 mps 749 mmHg 43%

    Pasado mañana, 24 Marzo, Domingo

    Tiempo Temperatura Precipitaciones Viento Presión Humedad
    00:00 +4°C° 0 mm 1 mps 749 mmHg 44%
    01:00 +4°C° 0 mm 1 mps 748 mmHg 45%
    02:00 +3°C° 0 mm 2 mps 748 mmHg 46%
    03:00 +3°C° 0 mm 2 mps 747 mmHg 48%
    04:00 +3°C° 0 mm 2 mps 747 mmHg 50%
    05:00 +1°C° 0 mm 3 mps 746 mmHg 52%
    06:00 +3°C° 0 mm 3 mps 746 mmHg 51%
    07:00 +4°C° 0 mm 4 mps 746 mmHg 50%
    08:00 +5°C° 0 mm 4 mps 746 mmHg 48%
    09:00 +5°C° 0.2 mm 4 mps 746 mmHg 57%
    10:00 +5°C° 0.2 mm 4 mps 746 mmHg 65%
    11:00 +5°C° 0.2 mm 4 mps 746 mmHg 73%
    12:00 +6°C° 0 mm 4 mps 745 mmHg 73%
    13:00 +7°C° 0 mm 4 mps 745 mmHg 73%
    14:00 +8°C° 0 mm 4 mps 745 mmHg 73%
    15:00 +8°C° 0 mm 4 mps 745 mmHg 68%
    16:00 +10°C° 0 mm 3 mps 745 mmHg 63%
    17:00 +10°C° 0 mm 3 mps 745 mmHg 58%
    18:00 +9°C° 0 mm 3 mps 745 mmHg 60%
    19:00 +8°C° 0 mm 3 mps 745 mmHg 62%
    20:00 +7°C° 0 mm 3 mps 745 mmHg 64%
    21:00 +6°C° 0 mm 2 mps 745 mmHg 66%
    22:00 +6°C° 0 mm 2 mps 745 mmHg 67%
    23:00 +5°C° 0 mm 2 mps 744 mmHg 68%

    25 Marzo, Lunes

    Tiempo Temperatura Precipitaciones Viento Presión Humedad
    00:00 +5°C° 0 mm 2 mps 744 mmHg 70%
    01:00 +4°C° 0 mm 2 mps 744 mmHg 72%
    02:00 +3°C° 0 mm 2 mps 744 mmHg 73%
    03:00 +3°C° 0 mm 2 mps 744 mmHg 75%
    04:00 +2°C° 0 mm 2 mps 744 mmHg 76%
    05:00 +1°C° 0 mm 3 mps 744 mmHg 78%
    06:00 +1°C° 0 mm 3 mps 744 mmHg 75%
    07:00 +2°C° 0 mm 3 mps 744 mmHg 72%
    08:00 +2°C° 0 mm 3 mps 744 mmHg 69%
    09:00 +3°C° 0 mm 4 mps 744 mmHg 63%
    10:00 +5°C° 0 mm 4 mps 743 mmHg 57%
    11:00 +6°C° 0 mm 5 mps 743 mmHg 51%
    12:00 +6°C° 0.1 mm 5 mps 743 mmHg 48%
    13:00 +7°C° 0.1 mm 5 mps 742 mmHg 45%
    14:00 +7°C° 0.1 mm 5 mps 741 mmHg 42%
    15:00 +7°C° 0.1 mm 5 mps 741 mmHg 44%
    16:00 +7°C° 0.1 mm 5 mps 741 mmHg 47%
    17:00 +6°C° 0.1 mm 5 mps 740 mmHg 49%
    18:00 +5°C° 0.2 mm 4 mps 740 mmHg 55%
    19:00 +4°C° 0.2 mm 3 mps 740 mmHg 60%
    20:00 +4°C° 0.2 mm 3 mps 740 mmHg 66%
    21:00 +3°C° 0.2 mm 3 mps 740 mmHg 70%
    22:00 +4°C° 0.2 mm 2 mps 740 mmHg 74%
    23:00 +4°C° 0.2 mm 2 mps 740 mmHg 78%

    26 Marzo, Martes

    Tiempo Temperatura Precipitaciones Viento Presión Humedad
    00:00 +3°C° 0 mm 2 mps 740 mmHg 80%
    01:00 +3°C° 0 mm 2 mps 740 mmHg 82%
    02:00 +3°C° 0 mm 2 mps 740 mmHg 84%
    03:00 +2°C° 0 mm 2 mps 741 mmHg 84%
    04:00 +2°C° 0 mm 2 mps 741 mmHg 85%
    05:00 +2°C° 0 mm 2 mps 741 mmHg 85%
    06:00 +2°C° 0 mm 2 mps 742 mmHg 84%
    07:00 +2°C° 0 mm 3 mps 743 mmHg 82%
    08:00 +2°C° 0 mm 3 mps 743 mmHg 81%
    09:00 +3°C° 0 mm 3 mps 744 mmHg 75%
    10:00 +4°C° 0 mm 4 mps 745 mmHg 70%
    11:00 +5°C° 0 mm 4 mps 746 mmHg 65%
    12:00 +6°C° 0.1 mm 4 mps 746 mmHg 61%
    13:00 +7°C° 0.1 mm 4 mps 746 mmHg 58%
    14:00 +7°C° 0.1 mm 4 mps 747 mmHg 54%
    15:00 +7°C° 0.2 mm 5 mps 747 mmHg 53%
    16:00 +7°C° 0.2 mm 5 mps 747 mmHg 51%
    17:00 +7°C° 0.2 mm 5 mps 748 mmHg 50%
    18:00 +6°C° 0 mm 5 mps 749 mmHg 56%
    19:00 +4°C° 0 mm 4 mps 749 mmHg 62%
    20:00 +3°C° 0 mm 3 mps 750 mmHg 69%
    21:00 +2°C° 0 mm 3 mps 751 mmHg 70%
    22:00 +2°C° 0 mm 3 mps 751 mmHg 71%
    23:00 +2°C° 0 mm 2 mps 751 mmHg 72%

    27 Marzo, Miércoles

    Tiempo Temperatura Precipitaciones Viento Presión Humedad
    00:00 +1°C° 0 mm 2 mps 752 mmHg 72%
    01:00 +1°C° 0 mm 2 mps 752 mmHg 73%
    02:00 -1°C° 0 mm 2 mps 752 mmHg 73%
    03:00 -1°C° 0 mm 2 mps 752 mmHg 73%
    04:00 -1°C° 0 mm 2 mps 752 mmHg 72%
    05:00 -2°C° 0 mm 2 mps 752 mmHg 72%
    06:00 -1°C° 0 mm 3 mps 752 mmHg 67%
    07:00 -1°C° 0 mm 4 mps 752 mmHg 61%
    08:00 +1°C° 0 mm 5 mps 752 mmHg 55%
    09:00 +2°C° 0 mm 5 mps 752 mmHg 49%
    10:00 +5°C° 0 mm 5 mps 752 mmHg 43%
    11:00 +6°C° 0 mm 5 mps 752 mmHg 37%
    12:00 +7°C° 0 mm 6 mps 751 mmHg 36%
    13:00 +8°C° 0 mm 6 mps 751 mmHg 35%
    14:00 +8°C° 0 mm 6 mps 751 mmHg 34%
    15:00 +8°C° 0 mm 6 mps 750 mmHg 35%
    16:00 +8°C° 0 mm 6 mps 750 mmHg 37%
    17:00 +8°C° 0 mm 5 mps 750 mmHg 38%
    18:00 +6°C° 0 mm 5 mps 750 mmHg 44%
    19:00 +5°C° 0 mm 4 mps 750 mmHg 49%
    20:00 +4°C° 0 mm 3 mps 750 mmHg 55%
    21:00 +3°C° 0 mm 3 mps 750 mmHg 61%
    22:00 +3°C° 0 mm 3 mps 750 mmHg 68%
    23:00 +3°C° 0 mm 3 mps 751 mmHg 74%
    Mostrar más